Location: ????
(55.5675°N, 37.6272°E)
Time: 19:52:38
(UTC+00:00)

Cosmos 1869 Rocket - Pass Details

Date: 14 April 2026
Orbit: 598 x 625 km, 82.5° (Epoch: 19 May)

Event Time Altitude Azimuth Distance (km) Brightness Sun altitude
Rises 18:00:37 0° 194° (SSW) 2,875 6.7 -11.7°
Reaches altitude 10° 18:02:50 10° 196° (SSW) 1,979 5.9 -12.0°
Maximum altitude 18:07:13 78° 283° (WNW) 642 3.7 -12.5°
Drops below altitude 10° 18:11:41 10° 10° (N) 2,008 6.6 -13.0°
Sets 18:13:56 0° 12° (NNE) 2,922 7.4 -13.2°
